N8CTB Weather Reports


time (UTC)temp
F
wind
direction
speed
knots
gust
knots
rain 1hr
in
rain 24hr
in
rain mn
in
humidity
%
barometer
mb
20260503055003 33 230 0.0 0.0 0.00 0.00 0.00 83 1014.6
20260503054504 33 231 0.0 0.0 0.00 0.00 0.00 83 1014.8
20260503054003 33 230 0.0 1.7 0.00 0.00 0.00 83 1014.9
20260503053502 33 231 0.0 0.0 0.00 0.00 0.00 83 1014.9
20260503053006 33 231 0.0 1.7 0.00 0.00 0.00 82 1014.9
20260503052505 33 231 0.0 1.7 0.00 0.00 0.00 85 1015.0
20260503052003 33 230 0.0 0.9 0.00 0.00 0.00 84 1015.1
20260503051503 33 230 0.0 0.0 0.00 0.00 0.00 83 1015.1
20260503051008 33 231 0.0 0.0 0.00 0.00 0.00 82 1015.2
20260503050505 34 231 0.0 0.0 0.00 0.00 0.00 83 1015.2
20260503050005 34 231 0.0 0.0 0.00 0.00 0.00 81 1015.3
20260503045503 34 231 0.0 0.0 0.00 0.00 0.00 80 1015.3
20260503045005 34 231 0.0 0.0 0.00 0.00 0.00 81 1015.4
20260503044504 34 231 0.0 1.7 0.00 0.00 0.00 80 1015.4
20260503044004 34 231 0.0 1.7 0.00 0.00 0.00 80 1015.4
20260503043504 34 230 0.0 1.7 0.00 0.00 0.00 79 1015.4
20260503043005 34 235 0.0 0.0 0.00 0.00 0.00 78 1015.4
20260503042503 34 235 0.0 0.0 0.00 0.00 0.00 79 1015.5
20260503042003 34 235 0.0 0.0 0.00 0.00 0.00 79 1015.5
20260503041507 34 235 0.0 0.0 0.00 0.00 0.00 79 1015.5
20260503041006 34 235 0.0 0.0 0.00 0.00 0.00 79 1015.6
20260503040506 34 235 0.0 0.0 0.00 0.00 0.00 78 1015.6
20260503040011 34 235 0.0 0.0 0.00 0.00 0.00 78 1015.7
20260503035504 34 235 0.0 0.0 0.00 0.00 0.00 78 1015.6
20260503035007 34 235 0.0 0.0 0.00 0.00 0.00 78 1015.7
20260503034504 34 235 0.0 0.0 0.00 0.00 0.00 78 1015.7
20260503034005 35 235 0.0 0.0 0.00 0.00 0.00 77 1015.8
20260503033504 35 235 0.0 0.0 0.00 0.00 0.00 77 1015.8
20260503033005 35 235 0.0 0.0 0.00 0.00 0.00 77 1015.9
20260503032502 35 235 0.0 0.0 0.00 0.00 0.00 76 1016.0
20260503032002 35 235 0.0 0.0 0.00 0.00 0.00 76 1015.9
20260503031504 35 235 0.0 0.0 0.00 0.00 0.00 76 1015.9
20260503031003 36 235 0.0 0.0 0.00 0.00 0.00 76 1016.0
20260503030503 36 235 0.0 0.0 0.00 0.00 0.00 75 1016.0
20260503030008 36 235 0.0 0.0 0.00 0.00 0.00 77 1016.1
20260503025505 37 235 0.0 0.0 0.00 0.00 0.00 77 1016.1
20260503025004 37 235 0.0 0.0 0.00 0.00 0.00 76 1016.2
20260503024512 37 235 0.0 0.0 0.00 0.00 0.00 74 1016.2
20260503024006 37 235 0.0 0.0 0.00 0.00 0.00 72 1016.2
20260503023504 38 235 0.0 0.0 0.00 0.00 0.00 72 1016.2
20260503023008 38 235 0.0 0.0 0.00 0.00 0.00 71 1016.1
20260503022506 38 235 0.0 0.0 0.00 0.00 0.00 69 1016.1
20260503022010 39 235 0.0 1.7 0.00 0.00 0.00 68 1016.1
20260503021515 39 235 0.0 1.7 0.00 0.00 0.00 71 1016.1
20260503021002 39 235 0.0 1.7 0.00 0.00 0.00 68 1016.1
20260503020502 40 235 0.0 1.7 0.00 0.00 0.00 64 1016.1
20260503020004 40 244 0.9 2.6 0.00 0.00 0.00 64 1016.1
20260503015506 40 244 0.9 2.6 0.00 0.00 0.00 65 1016.1
20260503015007 41 251 0.0 1.7 0.00 0.00 0.00 65 1016.0
20260503014509 41 261 0.0 1.7 0.00 0.00 0.00 62 1016.0
20260503014004 41 228 0.9 1.7 0.00 0.00 0.00 60 1016.0
20260503013505 42 242 0.9 1.7 0.00 0.00 0.00 60 1016.0
20260503013014 42 242 0.0 1.7 0.00 0.00 0.00 57 1016.0
20260503012503 43 258 0.0 2.6 0.00 0.00 0.00 55 1016.0
20260503012003 43 255 0.0 3.5 0.00 0.00 0.00 56 1015.9
20260503011516 43 251 0.9 4.3 0.00 0.00 0.00 53 1015.9
20260503011007 44 250 2.6 4.3 0.00 0.00 0.00 52 1016.0
20260503010504 44 223 1.7 2.6 0.00 0.00 0.00 52 1016.0
20260503010014 44 238 0.9 2.6 0.00 0.00 0.00 52 1016.0
20260503005505 45 230 0.9 3.5 0.00 0.00 0.00 48 1016.0
20260503005002 45 263 1.7 4.3 0.00 0.00 0.00 48 1015.9
20260503004508 45 239 1.7 4.3 0.00 0.00 0.00 47 1015.9
20260503004003 46 315 1.7 5.2 0.00 0.00 0.00 46 1015.9
20260503003506 46 294 2.6 5.2 0.00 0.00 0.00 45 1015.8
20260503003005 46 249 0.9 3.5 0.00 0.00 0.00 45 1015.8
20260503002503 46 239 1.7 4.3 0.00 0.00 0.00 44 1015.7
20260503002004 47 260 0.9 6.1 0.00 0.00 0.00 47 1015.8
20260503001514 47 285 2.6 6.1 0.00 0.00 0.00 43 1015.7
20260503001004 47 225 0.9 3.5 0.00 0.00 0.00 42 1015.8
20260503000504 47 114 0.9 6.1 0.00 0.00 0.00 42 1015.8
20260503000028 48 207 0.9 6.1 0.00 0.00 0.00 42 1015.9
20260502235504 48 242 2.6 4.3 0.00 0.00 0.00 40 1015.8
20260502235004 48 242 0.9 4.3 0.00 0.00 0.00 41 1015.9
20260502234530 48 242 0.9 7.8 0.00 0.00 0.00 40 1015.8
20260502234011 48 265 1.7 7.8 0.00 0.00 0.00 41 1015.9
20260502233504 49 232 3.5 5.2 0.00 0.00 0.00 40 1015.9
20260502233006 49 277 2.6 5.2 0.00 0.00 0.00 38 1016.0
20260502232503 50 46 0.9 4.3 0.00 0.00 0.00 41 1016.0
20260502232004 50 49 0.9 3.5 0.00 0.00 0.00 39 1016.1
20260502231514 50 213 0.9 4.3 0.00 0.00 0.00 42 1016.1
20260502231003 50 207 0.9 8.7 0.00 0.00 0.00 39 1016.1
20260502230507 50 236 2.6 8.7 0.00 0.00 0.00 41 1016.1
20260502230009 50 286 2.6 7.0 0.00 0.00 0.00 41 1016.2
20260502225503 50 312 1.7 9.6 0.00 0.00 0.00 40 1016.1
20260502225007 50 251 1.7 9.6 0.00 0.00 0.00 41 1016.1
20260502224522 50 162 2.6 8.7 0.00 0.00 0.00 42 1016.2
20260502224008 49 300 2.6 7.0 0.00 0.00 0.00 40 1016.2
20260502223508 50 221 2.6 13.9 0.00 0.00 0.00 40 1016.2
20260502223036 50 300 1.7 13.9 0.00 0.00 0.00 42 1016.2
20260502222504 50 211 6.1 13.9 0.00 0.00 0.00 44 1016.2
20260502222007 50 255 5.2 9.6 0.00 0.00 0.00 42 1016.3
20260502221508 50 286 2.6 9.6 0.00 0.00 0.00 42 1016.3
20260502221008 50 323 4.3 9.6 0.00 0.00 0.00 43 1016.4
20260502220506 50 279 1.7 7.8 0.00 0.00 0.00 43 1016.3
20260502220014 50 84 2.6 14.8 0.00 0.00 0.00 43 1016.3
20260502215507 50 248 7.0 13.0 0.00 0.00 0.00 45 1016.1
20260502215007 50 228 2.6 10.4 0.00 0.00 0.00 42 1016.2
20260502214520 50 327 2.6 10.4 0.00 0.00 0.00 43 1016.4
20260502214011 50 267 5.2 10.4 0.00 0.00 0.00 43 1016.3
20260502213508 50 252 5.2 13.9 0.00 0.00 0.00 45 1016.3
20260502213013 49 217 2.6 13.9 0.00 0.00 0.00 44 1016.3
20260502212505 50 231 6.1 9.6 0.00 0.00 0.00 46 1016.3
20260502212011 50 352 5.2 8.7 0.00 0.00 0.00 45 1016.3
20260502211512 50 274 2.6 7.0 0.00 0.00 0.00 47 1016.3
20260502211007 50 180 1.7 8.7 0.00 0.00 0.00 49 1016.3
20260502210511 50 265 4.3 13.9 0.00 0.00 0.00 46 1016.4
20260502210007 50 286 3.5 13.9 0.00 0.00 0.00 45 1016.4
20260502205508 51 242 5.2 9.6 0.00 0.00 0.00 46 1016.4
20260502205002 50 218 3.5 9.6 0.00 0.00 0.00 50 1016.5
20260502204507 50 339 2.6 10.4 0.00 0.00 0.00 46 1016.6
20260502204002 50 273 3.5 10.4 0.00 0.00 0.00 47 1016.6
20260502203502 49 165 0.9 9.6 0.00 0.00 0.00 48 1016.7
20260502203004 50 273 3.5 9.6 0.00 0.00 0.00 45 1016.7
20260502202503 50 192 3.5 8.7 0.00 0.00 0.00 48 1016.7
20260502202004 50 284 3.5 9.6 0.00 0.00 0.00 48 1016.8
20260502201503 50 240 2.6 9.6 0.00 0.00 0.00 46 1016.8
20260502201004 50 25 3.5 9.6 0.00 0.00 0.00 48 1016.9
20260502200503 50 308 3.5 9.6 0.00 0.00 0.00 47 1017.0
20260502200011 49 223 3.5 8.7 0.00 0.00 0.00 49 1017.1
20260502195503 48 224 5.2 8.7 0.00 0.00 0.00 53 1017.1
20260502195003 48 271 4.3 8.7 0.00 0.00 0.00 52 1017.2
20260502194520 48 284 1.7 9.6 0.00 0.00 0.00 51 1017.2
20260502194003 48 266 3.5 9.6 0.00 0.00 0.00 52 1017.2
20260502193504 48 182 2.6 10.4 0.00 0.00 0.00 50 1017.2
20260502193012 48 189 1.7 10.4 0.00 0.00 0.00 50 1017.4
20260502192505 47 241 1.7 10.4 0.00 0.00 0.00 53 1017.4
20260502192003 47 254 6.1 10.4 0.00 0.00 0.00 51 1017.4
20260502191504 47 327 2.6 8.7 0.00 0.00 0.00 50 1017.5
20260502191004 47 46 3.5 8.7 0.00 0.00 0.00 50 1017.5
20260502190504 47 62 2.6 11.3 0.00 0.00 0.00 51 1017.5
20260502190007 47 229 7.0 11.3 0.00 0.00 0.00 51 1017.6
20260502185504 47 242 1.7 10.4 0.00 0.00 0.00 51 1017.6
20260502185003 47 314 1.7 7.8 0.00 0.00 0.00 52 1017.7
20260502184503 47 284 2.6 8.7 0.00 0.00 0.00 52 1017.7
20260502184003 47 67 2.6 9.6 0.00 0.00 0.00 50 1017.7
20260502183506 47 214 5.2 9.6 0.00 0.00 0.00 50 1017.8
20260502183004 47 280 3.5 7.0 0.00 0.00 0.00 51 1017.8
20260502182506 47 238 1.7 7.0 0.00 0.00 0.00 51 1017.7
20260502182006 47 59 3.5 7.0 0.00 0.00 0.00 49 1017.8
20260502181517 47 71 2.6 6.1 0.00 0.00 0.00 50 1018.0
20260502181003 47 135 0.9 6.1 0.00 0.00 0.00 48 1018.1
20260502180503 47 261 3.5 6.1 0.00 0.00 0.00 53 1018.1
20260502170509 45 285 1.7 7.0 0.00 0.00 0.00 54 1018.5
20260502164003 44 257 4.3 9.6 0.00 0.00 0.00 57 1018.7
20260502163504 44 274 3.5 7.8 0.00 0.00 0.00 56 1018.8
20260502163035 45 206 1.7 12.2 0.00 0.00 0.00 56 1018.8
20260502162505 45 15 1.7 9.6 0.00 0.00 0.00 55 1018.8
20260502162011 44 250 2.6 7.8 0.00 0.00 0.00 54 1018.9
20260502161523 44 257 1.7 6.1 0.00 0.00 0.00 56 1018.9
20260502161006 44 292 1.7 6.1 0.00 0.00 0.00 55 1018.9
20260502160506 44 11 2.6 4.3 0.00 0.00 0.00 54 1018.9
20260502152008 42 65 1.7 6.1 0.00 0.00 0.00 55 1019.1
20260502151514 43 283 2.6 7.8 0.00 0.00 0.00 56 1019.1
20260502151003 42 235 3.5 7.8 0.00 0.00 0.00 56 1019.0
20260502150506 42 78 1.7 6.1 0.00 0.00 0.00 57 1019.0
20260502130505 38 61 2.6 5.2 0.00 0.00 0.00 74 1019.4
20260502123507 35 53 0.9 6.1 0.00 0.00 0.00 82 1019.4
20260502123014 35 29 1.7 7.8 0.00 0.00 0.00 83 1019.5
20260502122506 35 80 1.7 7.8 0.00 0.00 0.00 85 1019.4
20260502122011 34 66 3.5 7.0 0.00 0.00 0.00 86 1019.5
20260502121527 34 36 1.7 3.5 0.00 0.00 0.00 89 1019.3
20260502121007 33 54 1.7 3.5 0.00 0.00 0.00 91 1019.3
20260502120514 32 52 0.0 2.6 0.00 0.00 0.00 93 1019.3
20260502115508 31 257 0.0 1.7 0.00 0.00 0.00 95 1019.2
20260502115011 30 333 0.0 1.7 0.00 0.00 0.00 94 1019.1
20260502114525 29 352 0.0 1.7 0.00 0.00 0.00 94 1019.1
20260502114011 29 352 0.0 1.7 0.00 0.00 0.00 94 1019.0
20260502113510 29 352 0.0 0.0 0.00 0.00 0.00 93 1019.0
20260502113034 29 352 0.0 0.0 0.00 0.00 0.00 93 1019.0
20260502112511 29 352 0.0 1.7 0.00 0.00 0.00 93 1018.9
20260502112011 28 352 0.0 1.7 0.00 0.00 0.00 93 1018.9
20260502111528 28 261 0.0 1.7 0.00 0.00 0.00 93 1018.8
20260502111009 28 261 0.0 0.9 0.00 0.00 0.00 93 1018.8
20260502110510 28 261 0.9 0.9 0.00 0.00 0.00 93 1018.8
20260502110028 28 261 0.0 0.9 0.00 0.00 0.00 93 1018.8
20260502105514 28 261 0.0 0.0 0.00 0.00 0.00 93 1018.8
20260502105010 28 261 0.0 0.0 0.00 0.00 0.00 92 1018.8
20260502104530 28 261 0.0 0.0 0.00 0.00 0.00 92 1018.8
20260502104010 28 261 0.0 0.0 0.00 0.00 0.00 92 1018.8
20260502103511 28 261 0.0 0.0 0.00 0.00 0.00 92 1018.8
20260502103031 28 261 0.0 0.0 0.00 0.00 0.00 92 1018.8
20260502102512 28 261 0.0 1.7 0.00 0.00 0.00 92 1018.8
20260502102012 28 261 0.0 1.7 0.00 0.00 0.00 92 1018.8
20260502101528 28 261 0.0 1.7 0.00 0.00 0.00 92 1018.7
20260502101010 28 261 0.0 0.0 0.00 0.00 0.00 92 1018.6
20260502100512 28 261 0.0 0.0 0.00 0.00 0.00 91 1018.6
20260502091531 30 261 0.0 0.0 0.00 0.00 0.00 90 1018.4
20260502091011 30 261 0.0 0.0 0.00 0.00 0.00 90 1018.3
20260502090510 30 261 0.0 0.0 0.00 0.00 0.00 90 1018.3
20260502071532 30 261 0.0 0.0 0.00 0.00 0.00 89 1018.3
20260502071016 30 261 0.0 0.0 0.00 0.00 0.00 89 1018.2
20260502070518 30 261 0.0 0.0 0.00 0.00 0.00 89 1018.2
20260502070047 30 261 0.0 0.0 0.00 0.00 0.00 89 1018.2
20260502065515 31 261 0.0 0.0 0.00 0.00 0.00 89 1018.3
20260502065016 31 261 0.0 0.0 0.00 0.00 0.00 89 1018.2
20260502064542 31 261 0.0 0.0 0.00 0.00 0.00 88 1018.3
20260502064015 31 261 0.0 0.0 0.00 0.00 0.00 88 1018.3
20260502063515 31 261 0.0 0.0 0.00 0.00 0.00 88 1018.4